[[{"header":{"parameterUnit":"m.s-1","parameterCategory":1,"la1":30.2992,"la2":30.254,"lo1":-89.0895,"lo2":-89.0443,"dy":0.0025,"dx":0.0025,"nx":19,"ny":19,"refTime":"2026-03-18T21:00:00:Z","depth":0,"parameterNumber":2,"parameterNumberName":"U-component_of_WINDS"},"data":[0,0,0,3.0483,3.0485,3.0595,3.0595,3.0737,3.0738,0,0,0,0,0,0,0,0,0,0,0,3.0455,3.0456,3.0483,3.0486,3.0595,3.0595,3.0737,3.0738,0,0,0,0,0,0,0,0,0,0,0,3.0455,3.0456,3.0458,3.0486,3.0595,3.0595,3.0737,3.0653,0,0,0,0,0,0,0,0,0,0,3.0546,3.0526,3.0456,3.0458,3.0487,3.0595,3.0595,3.0649,3.0658,3.069,0,3.0722,0,3.0732,3.0748,3.0749,0,0,0,3.0482,3.0518,3.0543,3.0458,3.0488,3.0595,3.0544,3.0654,3.0664,3.0702,3.0724,3.0729,3.0735,3.0749,3.075,3.0949,3.095,0,0,3.0476,3.0477,3.0536,3.0551,3.0537,3.0541,3.0548,3.066,3.0683,3.0724,3.0732,3.0737,3.075,3.0751,3.0948,3.0949,0,0,0,3.0461,3.0473,3.0496,3.0545,3.0564,3.0544,3.0552,3.0678,3.0685,3.0733,3.0739,3.0751,3.0753,3.0947,3.0949,3.1003,0,0,0,3.0457,3.0465,3.0493,3.0495,3.0563,3.0623,3.0568,3.0677,3.069,3.0738,3.0751,3.0754,3.0946,3.0948,3.0999,3.1028,0,0,0,3.0447,3.0463,3.0481,3.0495,3.0542,3.0622,3.0635,3.068,3.0694,3.0749,3.0755,3.0945,3.0947,3.0995,3.1022,3.1077,0,0,0,3.0435,3.053,3.0482,3.0589,3.0541,3.0656,3.0634,3.072,3.0774,3.0752,3.0946,3.0948,3.0994,3.1018,3.1073,3.1122,3.1144,0,0,3.0555,3.0544,3.0607,3.0567,3.069,3.0639,3.0769,3.0818,3.0822,3.0905,3.091,3.1,3.1021,3.1076,3.1269,3.1286,0,0,0,3.0645,3.069,3.0722,3.0774,3.0814,3.0848,3.0876,3.0893,3.0964,3.0866,3.1037,3.105,3.1082,3.1104,3.1119,3.1144,3.096,3.096,3.096,3.0815,3.0815,3.0916,3.0928,3.0978,3.1005,3.1044,3.1071,3.1057,3.1097,3.1121,3.1238,3.1265,3.1276,3.1302,3.1149,3.115,3.115,3.115,3.0987,3.1048,3.1025,3.1115,3.1112,3.1187,3.1214,3.1201,3.1268,3.1221,3.1249,3.1195,3.1295,3.1317,3.1154,3.1153,3.1153,3.1153,3.1152,3.1096,3.1124,3.1144,3.1216,3.127,3.1278,3.1342,3.1338,3.1335,3.1363,3.1385,3.1384,3.1379,3.1374,3.1375,3.1375,3.1376,3.1376,3.1376,3.1199,3.1219,3.1275,3.1322,3.1352,3.1391,3.1416,3.1445,3.1475,3.1467,3.1467,3.1445,3.1307,3.1269,3.1382,3.1381,3.138,3.138,3.1379,3.1368,3.1328,3.1414,3.1444,3.1496,3.1547,3.1542,3.16,3.1623,3.1653,3.1626,3.1525,3.1513,3.1502,3.147,3.1629,3.1629,3.1629,3.1629,3.1456,3.145,3.1534,3.1581,3.1628,3.163,3.1721,3.174,3.1753,3.1766,3.1743,3.1703,3.1691,3.1686,3.167,3.1641,3.1839,3.184,3.184,3.1557,3.1555,3.1635,3.1648,3.1688,3.172,3.1805,3.1857,3.1864,3.1848,3.1775,3.1766,3.1701,3.1681,3.1661,3.1637,3.1583,0,0]},{"header":{"parameterUnit":"m.s-1","parameterCategory":1,"la1":30.2992,"la2":30.254,"lo1":-89.0895,"lo2":-89.0443,"dy":0.0025,"dx":0.0025,"nx":19,"ny":19,"refTime":"2026-03-18T21:00:00:Z","depth":0,"parameterNumber":3,"parameterNumberName":"V-component_of_WINDS"},"data":[0,0,0,2.7838,2.7837,2.7769,2.7769,2.7706,2.7706,0,0,0,0,0,0,0,0,0,0,0,2.7875,2.7875,2.7838,2.7837,2.7769,2.7769,2.7706,2.7706,0,0,0,0,0,0,0,0,0,0,0,2.7875,2.7875,2.7876,2.7837,2.7769,2.7769,2.7707,2.7749,0,0,0,0,0,0,0,0,0,0,2.781,2.7862,2.7875,2.7876,2.7837,2.7769,2.7769,2.775,2.7746,2.7748,0,2.7757,0,2.7731,2.7704,2.7704,0,0,0,2.7824,2.7865,2.7832,2.7876,2.7836,2.7769,2.7796,2.7748,2.7743,2.7743,2.7756,2.7753,2.773,2.7703,2.7703,2.7762,2.7763,0,0,2.7828,2.7872,2.7835,2.783,2.7844,2.7798,2.7794,2.7744,2.776,2.7755,2.7751,2.7729,2.7703,2.7703,2.7761,2.7763,0,0,0,2.7847,2.7875,2.7842,2.7833,2.7819,2.7797,2.7792,2.7763,2.7748,2.775,2.7728,2.7703,2.7703,2.776,2.7762,2.7847,0,0,0,2.7849,2.7886,2.7844,2.7871,2.782,2.779,2.7812,2.7752,2.7744,2.7728,2.7703,2.7702,2.7759,2.7761,2.7843,2.788,0,0,0,2.7874,2.7889,2.7885,2.7873,2.7846,2.779,2.7772,2.7749,2.7732,2.7704,2.7702,2.7759,2.7761,2.7839,2.7873,2.7906,0,0,0,2.7913,2.7964,2.7888,2.7935,2.7847,2.7845,2.7772,2.7768,2.7754,2.7703,2.776,2.7762,2.7838,2.7869,2.7902,2.7941,2.7962,0,0,2.8002,2.7976,2.8,2.793,2.7953,2.7851,2.7885,2.7831,2.7787,2.7773,2.7773,2.7844,2.7873,2.7905,2.8067,2.8084,0,0,0,2.8043,2.8061,2.8057,2.8046,2.8006,2.7973,2.7909,2.7887,2.7872,2.779,2.7865,2.7881,2.7898,2.7914,2.7928,2.7939,2.7772,2.7772,2.7771,2.8232,2.8173,2.8208,2.8141,2.8131,2.8063,2.8048,2.8007,2.7952,2.7971,2.7966,2.8071,2.8092,2.8102,2.8114,2.7983,2.7983,2.7983,2.7984,2.8354,2.8368,2.8292,2.8299,2.8236,2.824,2.8175,2.8135,2.8128,2.8071,2.8083,2.8023,2.8122,2.8129,2.799,2.7989,2.7988,2.7987,2.7987,2.8468,2.8465,2.8439,2.8415,2.8402,2.8332,2.8328,2.8271,2.8217,2.8229,2.8215,2.8214,2.8202,2.8227,2.8227,2.8228,2.8228,2.8228,2.8229,2.8597,2.8565,2.8569,2.8529,2.8513,2.8484,2.8414,2.8396,2.836,2.8318,2.8318,2.8259,2.8144,2.8115,2.8234,2.8233,2.8232,2.8232,2.8231,2.8739,2.8697,2.8705,2.8689,2.8634,2.8624,2.8551,2.8518,2.8494,2.8493,2.8431,2.8356,2.8326,2.8314,2.8289,2.8446,2.8446,2.8446,2.8446,2.8834,2.8813,2.8806,2.8783,2.8754,2.8688,2.8695,2.864,2.8576,2.8557,2.8526,2.8489,2.848,2.8454,2.8439,2.8415,2.86,2.86,2.86,2.8916,2.8889,2.8907,2.8846,2.8799,2.8759,2.8762,2.8736,2.8655,2.8605,2.8539,2.8533,2.8473,2.8457,2.8405,2.8383,2.8338,0,0]}]]